Location: Molalla
(45.1473°N, 122.5770°W)
Time: 14:01:33
(UTC-08:00)

Vanguard 2 Rocket - Visible Passes

Search period start: 13 November 2019 00:00
Search period end: 23 November 2019 00:00
Orbit: 554 x 3326 km, 32.9° (Epoch: 12 November)

Date Brightness Start Highest point End Pass type
(mag) Time Alt. Az. Time Alt. Az. Time Alt. Az.
13 Nov 9.7 02:30:58 13° ESE 02:30:58 13° ESE 02:32:31 10° ESE visible
13 Nov 8.4 04:36:47 28° SSW 04:39:39 37° S 04:49:50 10° ESE visible
14 Nov 8.6 03:40:43 30° SSE 03:40:43 30° SSE 03:48:11 10° ESE visible
14 Nov 9.1 05:46:31 11° WSW 05:53:18 36° S 06:04:50 10° SE visible
15 Nov 9.5 02:44:39 16° ESE 02:44:39 16° ESE 02:46:45 10° ESE visible
15 Nov 8.4 04:50:27 26° SW 04:53:30 35° S 05:03:15 10° ESE visible
16 Nov 8.5 03:54:23 31° SSE 03:54:23 31° SSE 04:01:50 10° ESE visible
16 Nov 9.1 06:00:36 10° WSW 06:07:13 30° S 06:17:34 10° SE visible
17 Nov 9.4 02:58:19 17° SE 02:58:19 17° SE 03:00:41 10° ESE visible
17 Nov 8.5 05:04:08 22° SW 05:07:25 30° S 05:16:22 10° SE visible
18 Nov 8.4 04:08:04 28° S 04:08:04 28° S 04:15:16 10° SE visible
18 Nov 9.2 06:15:17 10° WSW 06:21:11 22° SSW 06:29:41 10° SSE visible
19 Nov 9.3 03:12:00 17° SE 03:12:00 17° SE 03:14:22 10° ESE visible
19 Nov 8.7 05:17:49 16° SW 05:21:22 24° S 05:29:02 10° SE visible
20 Nov 8.6 04:21:46 24° S 04:21:49 24° S 04:28:21 10° SE visible
20 Nov 9.4 06:30:50 10° SW 06:35:10 15° SSW 06:40:40 10° S visible
21 Nov 9.2 03:25:44 16° SE 03:25:44 16° SE 03:27:48 10° SE visible
21 Nov 9.0 05:31:33 11° SW 05:35:23 17° SSW 05:40:54 10° SSE visible
22 Nov 8.8 04:35:31 18° SSW 04:35:48 18° S 04:40:52 10° SSE visible
